Location: Lane
(33.5226°N, 79.8788°W)
Time: 18:38:33
(UTC+00:00)

Explorer 11/Cluster Stage 4 - Pass Details

Date: 01 October 2022
Orbit: 466 x 1247 km, 28.8° (Epoch: 01 December)

Event Time Altitude Azimuth Distance (km) Brightness Sun altitude
Rises 19:31:06 0° 262° (W) 3,968 10.8 40.1°
Reaches altitude 10° 19:34:10 10° 259° (W) 2,907 10.4 39.6°
Maximum altitude 19:41:05 57° 183° (S) 1,079 8.3 38.5°
Drops below altitude 10° 19:46:40 10° 105° (ESE) 2,354 8.8 37.6°
Sets 19:48:56 0° 101° (E) 3,164 9.4 37.2°
